Find Starlink 3243

NORAD ID: 51116 Int'l Des: 2022-005 Owner: SPXS Country: US Constellation: starlink operational
LEOCIRCULAR

現在のビュー

3D地球を読み込み中...

About Starlink 3243

Starlink 3243 (NORAD 51116) is a starlink constellation satellite (v1.5) launched Jan 19, 2022 by SPXS of US. It operates in LEO, CIRCULAR orbit with a mass of 297.00 kg.

次回通過

Passes for default location (London). Set your location on the main map for personalized predictions.

高度履歴

Loading altitude history...

軌道要素

1 51116U 22005N 26264.26042174 -.00000507 00000-0 -45709-5 0 9993
2 51116 53.1583 120.2518 0001368 81.5902 278.5255 15.31696417258544
Epoch: Sep 21, 2026 • Age: 20 hours

現在のステータス

高度 478.9 km
遠地点 / 近地点 N/A
速度 7.63 km/s
衛星直下点 -25.86°S, 72.87°W
打ち上げ日 Jan 19, 2022
運用期間 4.6 years
タイプ internet

技術仕様

分類 Payload
質量 297.00 kg
乾燥質量 275.00 kg
長さ 0.20 m
スパン 9.00 m
形状 ? Box + pan
製造者 SPXS
バスタイプ Starlink
フェーズステータス In Orbit
所有者/国 SPXS/US

Most Searched